Weather in Dolgorukovo

Russia / Lipetsk Oblast     52°19′24″N   38°21′14″E
temp.,
°C
wind,
m/s
gust,
m/s
humid.,
%
clouds,
%
prec.,
mm/h
press.,
hPa
HPBL,
m
8 march, mon
mon800:00−2w51381100 1.3 1003762
03:00−5wsw498698 1.3 1004195
06:00−6wsw4107980 0.0 1003152
09:00−4w5128589 0.0 1004603
12:00−3w7128153 0.0 10051122
15:00−3wnw698235 0.1 10061051
18:00−6wnw33888 0.0 100836
21:00−9w239011 0.0 100921
9 march, tue
tue900:00−10nw119672 0.1 101021
03:00−9nnw239584 0.2 101137
06:00−12nnw3493100 0.0 101277
09:00−11nnw359499 0.0 1014223
12:00−9nnw469195 0.1 1015465
15:00−9nnw578697 0.1 1017641
18:00−12nw369398 0.0 1018122
21:00−15nw349569 0.0 102170
10 march, wed
wed1000:00−16nw349619 0.0 102264
03:00−18nw349626 0.0 102454
06:00−20nw349865 0.0 102565
09:00−19nw369437 0.0 1027202
12:00−16nnw35900 0.0 1027356
15:00−15nnw358633 0.0 1028491
18:00−18n339264 0.0 102840
21:00−21nne339432 0.0 103034
11 march, thu
thu1100:00−22nne23920 0.0 103221
03:00−23nne22900 0.0 103320
06:00−23n22890 0.0 103320
09:00−20nnw238713 0.0 103487
12:00−15nw22780 0.0 1034251
15:00−13nw23800 0.0 1033321
18:00−17wnw12890 0.0 103320
21:00−19w11900 0.0 103420
12 march, fri
fri1200:00−19s12870 0.0 103420
03:00−18s33860 0.0 103320
06:00−18sse34870 0.0 103248
09:00−13s5118215 0.0 1031316
12:00−9s71275100 0.0 1030587
15:00−7s71271100 0.0 1028719
18:00−7s71569100 0.0 1025612
21:00−7s81767100 0.0 1025682